FW1003 Weather Reports


Display with metric or nautical units.
time (UTC)temp
F
wind
direction
speed
MPH
gust
MPH
rain 1hr
in
rain 24hr
in
rain mn
in
humidity
%
barometer
mb
20260901191547 82 306 1.0 4.0 0.00 0.00 0.00 69 1012.5
20260901190024 82 321 2.0 4.0 0.00 0.00 0.00 69 1012.5
20260901184524 83 321 2.0 5.0 0.00 0.00 0.00 68 1012.9
20260901183023 83 327 1.0 5.0 0.00 0.00 0.00 68 1013.0
20260901181623 83 319 1.0 4.0 0.00 0.00 0.00 67 1013.1
20260901180021 83 314 3.0 6.0 0.00 0.00 0.00 67 1012.9
20260901174522 84 327 2.0 5.0 0.00 0.00 0.00 67 1012.8
20260901173025 84 323 3.0 6.0 0.00 0.00 0.00 66 1012.7
20260901171524 84 327 2.0 6.0 0.00 0.00 0.00 66 1012.6
20260901170020 84 312 2.0 9.0 0.00 0.00 0.00 66 1012.5
20260901164535 84 309 2.0 5.0 0.00 0.00 0.00 66 1012.4
20260901163018 84 313 2.0 5.0 0.00 0.00 0.00 66 1012.4
20260901161537 85 302 2.0 6.0 0.00 0.00 0.00 65 1012.3
20260901160016 85 5 3.0 8.0 0.00 0.00 0.00 64 1012.2
20260901154516 85 328 2.0 8.0 0.00 0.00 0.00 63 1012.3
20260901153016 86 313 1.0 10.0 0.00 0.00 0.00 63 1012.2
20260901151516 86 312 1.0 6.0 0.00 0.00 0.00 62 1012.3
20260901150016 87 329 4.0 9.0 0.00 0.00 0.00 61 1012.4
20260901144514 87 317 3.0 9.0 0.00 0.00 0.00 61 1012.3
20260901143014 88 320 3.0 6.0 0.00 0.00 0.00 60 1012.2
20260901141514 88 331 5.0 9.0 0.00 0.00 0.00 58 1012.2
20260901140011 90 317 1.0 6.0 0.00 0.00 0.00 57 1012.3
20260901134511 90 339 3.0 9.0 0.00 0.00 0.00 57 1012.3
20260901133011 91 323 3.0 9.0 0.00 0.00 0.00 56 1012.4
20260901131510 91 337 1.0 9.0 0.00 0.00 0.00 56 1012.3
20260901130017 91 332 3.0 10.0 0.00 0.00 0.00 54 1012.4
20260901124515 92 322 2.0 10.0 0.00 0.00 0.00 55 1012.5
20260901123008 92 328 3.0 8.0 0.00 0.00 0.00 54 1012.5
20260901121607 92 67 2.0 8.0 0.00 0.00 0.00 53 1012.5
20260901120006 91 323 3.0 8.0 0.00 0.00 0.00 54 1012.7
20260901114509 92 306 3.0 11.0 0.00 0.00 0.00 54 1012.5
20260901113005 93 17 3.0 8.0 0.00 0.00 0.00 51 1012.6
20260901111505 92 92 2.0 9.0 0.00 0.00 0.00 52 1012.7
20260901110104 92 265 2.0 6.0 0.00 0.00 0.00 52 1012.8
20260901104506 92 101 1.0 6.0 0.00 0.00 0.00 53 1012.7
20260901103001 93 235 3.0 9.0 0.00 0.00 0.00 53 1012.8
20260901101605 93 313 2.0 8.0 0.00 0.00 0.00 51 1012.8
20260901100105 93 248 2.0 6.0 0.00 0.00 0.00 53 1012.9
20260901094558 92 54 1.0 7.0 0.00 0.00 0.00 54 1012.8
20260901093102 92 28 2.0 9.0 0.00 0.00 0.00 54 1012.9
20260901091555 92 128 3.0 6.0 0.00 0.00 0.00 54 1012.9
20260901090054 91 92 2.0 8.0 0.00 0.00 0.00 55 1013.0
20260901084553 91 190 2.0 7.0 0.00 0.00 0.00 57 1012.9
20260901083051 92 329 2.0 7.0 0.00 0.00 0.00 55 1013.0
20260901081547 91 169 2.0 6.0 0.00 0.00 0.00 58 1013.0
20260901080045 91 155 2.0 7.0 0.00 0.00 0.00 57 1013.1
20260901074546 91 85 1.0 6.0 0.00 0.00 0.00 56 1013.1
20260901073036 91 134 1.0 5.0 0.00 0.00 0.00 56 1013.1
20260901071533 90 232 1.0 3.0 0.00 0.00 0.00 56 1013.1
20260901070028 90 70 1.0 4.0 0.00 0.00 0.00 55 1013.2
20260901064524 89 196 0.0 6.0 0.00 0.00 0.00 56 1013.0
20260901063121 88 184 1.0 4.0 0.00 0.00 0.00 58 1012.9
20260901061526 88 186 1.0 6.0 0.00 0.00 0.00 58 1013.0
20260901060014 87 148 1.0 5.0 0.00 0.00 0.00 61 1013.0
20260901054510 87 88 2.0 4.0 0.00 0.00 0.00 61 1012.9
20260901053007 85 128 1.0 3.0 0.00 0.00 0.00 62 1012.9
20260901051501 84 183 0.0 3.0 0.00 0.00 0.00 64 1012.7
20260901050056 83 184 0.0 3.0 0.00 0.00 0.00 67 1012.8
20260901044558 81 197 0.0 0.0 0.00 0.00 0.00 69 1012.6
20260901043048 79 284 0.0 0.0 0.00 0.00 0.00 71 1012.6
20260901041543 79 284 0.0 0.0 0.00 0.00 0.00 73 1012.6
20260901040048 77 284 0.0 0.0 0.00 0.00 0.00 74 1012.4
20260901034537 76 284 0.0 0.0 0.00 0.00 0.00 73 1012.4
20260901033051 76 284 0.0 0.0 0.00 0.00 0.00 73 1012.3
20260901031532 76 284 0.0 0.0 0.00 0.00 0.00 74 1012.2
20260901030033 76 284 0.0 0.0 0.00 0.00 0.00 75 1012.1
20260901024527 75 284 0.0 0.0 0.00 0.00 0.00 74 1012.2
20260901023023 76 284 0.0 0.0 0.00 0.00 0.00 74 1012.1
20260901021523 76 284 0.0 0.0 0.00 0.00 0.00 74 1011.9
20260901020031 76 284 0.0 0.0 0.00 0.00 0.00 74 1012.0
20260901014521 76 284 0.0 0.0 0.00 0.00 0.00 73 1011.9
20260901013020 76 284 0.0 0.0 0.00 0.00 0.00 72 1012.0
20260901011519 76 284 0.0 0.0 0.00 0.00 0.00 72 1011.9
20260901010019 77 284 0.0 0.0 0.00 0.00 0.00 72 1011.9
20260901004516 77 284 0.0 0.0 0.00 0.00 0.00 72 1012.0
20260901003032 77 284 0.0 0.0 0.00 0.00 0.00 71 1011.9
20260901001515 77 284 0.0 0.0 0.00 0.00 0.00 71 1011.9
20260901000028 77 284 0.0 0.0 0.00 0.00 0.00 71 1011.9
20260831234513 77 284 0.0 0.0 0.00 0.00 0.00 71 1011.9
20260831233013 77 284 0.0 0.0 0.00 0.00 0.00 70 1011.8
20260831231510 78 284 0.0 0.0 0.00 0.00 0.00 70 1011.9
20260831230015 78 284 0.0 3.0 0.00 0.00 0.00 70 1012.0
20260831224507 78 284 0.0 2.0 0.00 0.00 0.00 70 1011.9
20260831223006 78 284 0.0 1.0 0.00 0.00 0.00 70 1012.0
20260831221506 79 284 0.0 1.0 0.00 0.00 0.00 70 1012.1
20260831220005 79 284 0.0 2.0 0.00 0.00 0.00 69 1012.2
20260831214502 79 284 0.0 1.0 0.00 0.00 0.00 69 1012.2
20260831213100 79 284 1.0 2.0 0.00 0.00 0.00 69 1012.2
20260831213004 79 284 1.0 3.0 0.00 0.00 0.00 69 1012.2
20260831211600 79 284 0.0 2.0 0.00 0.00 0.00 69 1012.3
20260831210057 79 284 0.0 0.0 0.00 0.00 0.00 69 1012.4
20260831204557 80 284 0.0 1.0 0.00 0.00 0.00 68 1012.3
20260831203104 80 284 0.0 1.0 0.00 0.00 0.00 68 1012.4
20260831201556 80 284 0.0 2.0 0.00 0.00 0.00 68 1012.4
20260831200107 81 284 0.0 1.0 0.00 0.00 0.00 68 1012.5
20260831194610 81 284 0.0 2.0 0.00 0.00 0.00 67 1012.5
20260831193054 81 284 0.0 1.0 0.00 0.00 0.00 67 1012.6